Home > Weather > Sorocaba > Past weeks

Flag for Brazil Past Weather in Sorocaba, São Paulo, Brazil — Yesterday and Last 2 Weeks

Now
61 °F

Clear.


Feels Like: 61 °F
Forecast: 60 / 75 °F
Wind: 7 mph from North

Location: Campinas Aeroporto

Current Time: May 29, 2016 at 10:19:10 PM

Latest Report: May 29, 2016 at 9:00 PM


Visibility: 10 mi

Pressure: 30.09 "Hg (28.02 "Hg at 602m altitude)

Humidity: 100%

Dew Point: 61 °F

Location of SorocabaLocation

Past Weather in Sorocaba — Graph

°F

Sorocaba Temperature Yesterday

Maximum temperature yesterday: 77 °F (at 2:00 PM)
Minimum temperature yesterday: 61 °F (at 3:00 AM)
Average temperature yesterday: 68 °F

High & Low Weather Summary for the Past Weeks

 TemperatureHumidityPressure
High82 °F (May 15, 3:00 PM)100% (May 15, 6:00 AM)30.36 "Hg (May 15, 6:00 AM)
Low48 °F (May 24, 3:00 AM)27% (May 16, 10:00 PM)29.92 "Hg (May 16, 4:00 PM)
Average66 °F80%30.15 "Hg
* Reported May 14 9:00 PM — May 29 9:00 PM, Sorocaba, Weather by CustomWeather, © 2016

Note: Actual official high and low records may vary slightly from our data, if they occured in-between our weather recording intervals... More about our weather records

Advertising

Sorocaba Weather History for the Previous 24 Hours

Scroll right to see more
 ConditionsComfort  
Time TempWeatherWind HumidityBarometerVisibility
9:00 PM
Sun, May 29
61 °FClear.7 mph100%30.09 "Hg10 mi
8:00 PM63 °FClear.8 mph94%30.09 "Hg10 mi
7:00 PM63 °FPassing clouds.9 mph100%30.07 "HgN/A
6:00 PM64 °FClear.8 mph94%30.07 "Hg10 mi
5:00 PM64 °FPassing clouds.7 mph94%30.09 "HgN/A
4:00 PM64 °FLight rain. More clouds than sun.6 mph88%30.09 "Hg5 mi
3:00 PM66 °FLight rain. Scattered clouds.7 mph78%30.12 "HgN/A
2:00 PM68 °FScattered clouds.8 mph69%30.12 "HgN/A
1:00 PM66 °FScattered clouds.9 mph78%30.15 "HgN/A
12:00 PM68 °FPartly sunny.9 mph69%30.18 "HgN/A
11:00 AM66 °FPartly sunny.9 mph68%30.21 "HgN/A
10:00 AM68 °FPassing clouds.12 mph69%30.21 "HgN/A
9:00 AM66 °FPassing clouds.6 mph73%30.21 "HgN/A
8:00 AM61 °FPassing clouds.7 mph94%30.18 "HgN/A
7:00 AM59 °FClear.8 mph100%30.15 "Hg6 mi
6:00 AM59 °FSunny.9 mph100%30.12 "Hg10 mi
5:00 AM59 °FClear.8 mph100%30.12 "Hg10 mi
4:00 AM61 °FClear.10 mph94%30.12 "Hg10 mi
3:00 AM61 °FClear.12 mph94%30.12 "Hg10 mi
2:00 AM61 °FClear.12 mph94%30.12 "Hg10 mi
1:00 AM63 °FClear.16 mph88%30.15 "Hg10 mi
12:00 AM63 °FClear.15 mph83%30.15 "Hg10 mi
11:00 PM
Sat, May 28
63 °FClear.16 mph83%30.18 "Hg10 mi
10:00 PM64 °FClear.14 mph83%30.18 "Hg10 mi
Weather by CustomWeather, © 2016

See weather overviewHow to use our weather pages